owner,sensor,date,latitude,longitude,vertical_datum,direction_of_sea_water_velocity,sea_water_speed,upward_sea_water_velocity,qcFlag 
TABS,ioos:station:wmo:42048:1,2011-02-01T00:00:00Z,27.9396,-96.8429,2.0,0.0,0.0,-99999.0,'11133222,11111222,99999999' 
TABS,ioos:station:wmo:42048:1,2011-02-01T00:30:00Z,27.9396,-96.8429,2.0,85.99583642,2.004894012,-99999.0,'11133222,11111222,99999999' 
TABS,ioos:station:wmo:42048:1,2011-02-01T01:00:00Z,27.9396,-96.8429,2.0,18.00368121,20.99811896,-99999.0,'11111222,11111222,99999999' 
TABS,ioos:station:wmo:42048:1,2011-02-01T01:30:00Z,27.9396,-96.8429,2.0,5.99094413,22.99558436,-99999.0,'11111222,11111222,99999999' 
TABS,ioos:station:wmo:42048:1,2011-02-01T02:00:00Z,27.9396,-96.8429,2.0,0.000210459,24.0,-99999.0,'11111222,11111222,99999999' 
TABS,ioos:station:wmo:42048:1,2011-02-01T02:30:00Z,27.9396,-96.8429,2.0,0.000210459,26.0,-99999.0,'11111222,11111222,99999999' 
TABS,ioos:station:wmo:42048:1,2011-02-01T03:00:00Z,27.9396,-96.8429,2.0,5.005025688,29.00056896,-99999.0,'11111222,11111222,99999999' 
TABS,ioos:station:wmo:42048:1,2011-02-01T03:30:00Z,27.9396,-96.8429,2.0,6.945289091,26.46418145,-99999.0,'11111222,11111222,99999999' 
TABS,ioos:station:wmo:42048:1,2011-02-01T04:00:00Z,27.9396,-96.8429,2.0,6.16335893,30.73765769,-99999.0,'11111222,11111222,99999999' 
TABS,ioos:station:wmo:42048:1,2011-02-01T04:30:00Z,27.9396,-96.8429,2.0,10.87163796,30.75191051,-99999.0,'11111222,11111222,99999999' 
TABS,ioos:station:wmo:42048:1,2011-02-01T05:00:00Z,27.9396,-96.8429,2.0,10.28081737,27.51168843,-99999.0,'11111222,11111222,99999999' 
TABS,ioos:station:wmo:42048:1,2011-02-01T05:30:00Z,27.9396,-96.8429,2.0,15.48987936,27.63369863,-99999.0,'11111222,11111222,99999999' 
TABS,ioos:station:wmo:42048:1,2011-02-01T06:00:00Z,27.9396,-96.8429,2.0,14.5117059,27.77613544,-99999.0,'11111222,11111222,99999999' 
TABS,ioos:station:wmo:42048:1,2011-02-01T06:30:00Z,27.9396,-96.8429,2.0,13.91997656,28.64109111,-99999.0,'11111222,11111222,99999999' 
TABS,ioos:station:wmo:42048:1,2011-02-01T07:00:00Z,27.9396,-96.8429,2.0,22.72239115,31.42928093,-99999.0,'11111222,11111222,99999999' 
TABS,ioos:station:wmo:42048:1,2011-02-01T07:30:00Z,27.9396,-96.8429,2.0,20.65467884,32.00728979,-99999.0,'11111222,11111222,99999999' 
TABS,ioos:station:wmo:42048:1,2011-02-01T08:00:00Z,27.9396,-96.8429,2.0,20.29525163,32.63609198,-99999.0,'11111222,11111222,99999999' 
TABS,ioos:station:wmo:42048:1,2011-02-01T08:30:00Z,27.9396,-96.8429,2.0,25.12575776,33.11319978,-99999.0,'11111222,11111222,99999999' 
TABS,ioos:station:wmo:42048:1,2011-02-01T09:00:00Z,27.9396,-96.8429,2.0,29.02211998,34.11350759,-99999.0,'11111222,11111222,99999999' 
TABS,ioos:station:wmo:42048:1,2011-02-01T09:30:00Z,27.9396,-96.8429,2.0,32.45655402,32.72102841,-99999.0,'11111222,11111222,99999999' 
TABS,ioos:station:wmo:42048:1,2011-02-01T10:00:00Z,27.9396,-96.8429,2.0,37.79682147,30.16994697,-99999.0,'11111222,11111222,99999999' 
TABS,ioos:station:wmo:42048:1,2011-02-01T10:30:00Z,27.9396,-96.8429,2.0,46.28116766,26.88384831,-99999.0,'11111222,11111222,99999999' 
TABS,ioos:station:wmo:42048:1,2011-02-01T11:00:00Z,27.9396,-96.8429,2.0,42.8001374,29.65670413,-99999.0,'11111222,11111222,99999999' 
TABS,ioos:station:wmo:42048:1,2011-02-01T11:30:00Z,27.9396,-96.8429,2.0,50.31616355,30.75708861,-99999.0,'11111222,11111222,99999999' 
TABS,ioos:station:wmo:42048:1,2011-02-01T12:00:00Z,27.9396,-96.8429,2.0,52.70198373,29.70482957,-99999.0,'11111222,11111222,99999999' 
TABS,ioos:station:wmo:42048:1,2011-02-01T12:30:00Z,27.9396,-96.8429,2.0,63.51651252,31.43914757,-99999.0,'11111222,11111222,99999999' 
TABS,ioos:station:wmo:42048:1,2011-02-01T13:00:00Z,27.9396,-96.8429,2.0,79.17013078,26.45111151,-99999.0,'11111222,11111222,99999999' 
TABS,ioos:station:wmo:42048:1,2011-02-01T13:30:00Z,27.9396,-96.8429,2.0,95.31811485,22.22567209,-99999.0,'11111222,11111222,99999999' 
TABS,ioos:station:wmo:42048:1,2011-02-01T14:00:00Z,27.9396,-96.8429,2.0,126.8647379,22.58600009,-99999.0,'11111222,11111222,99999999' 
TABS,ioos:station:wmo:42048:1,2011-02-01T14:30:00Z,27.9396,-96.8429,2.0,137.9823494,21.06495906,-99999.0,'11111222,11111222,99999999' 
TABS,ioos:station:wmo:42048:1,2011-02-01T15:00:00Z,27.9396,-96.8429,2.0,156.8823237,21.34388203,-99999.0,'11111222,11111222,99999999' 
TABS,ioos:station:wmo:42048:1,2011-02-01T15:30:00Z,27.9396,-96.8429,2.0,170.7141342,25.59539998,-99999.0,'11111222,11111222,99999999' 
TABS,ioos:station:wmo:42048:1,2011-02-01T16:00:00Z,27.9396,-96.8429,2.0,183.1724034,22.04378597,-99999.0,'11111222,11111222,99999999' 
TABS,ioos:station:wmo:42048:1,2011-02-01T16:30:00Z,27.9396,-96.8429,2.0,195.5135132,23.70361154,-99999.0,'11111222,11111222,99999999' 
TABS,ioos:station:wmo:42048:1,2011-02-01T17:00:00Z,27.9396,-96.8429,2.0,197.4116675,26.5673672,-99999.0,'11111222,11111222,99999999' 
TABS,ioos:station:wmo:42048:1,2011-02-01T17:30:00Z,27.9396,-96.8429,2.0,198.4288266,30.87331696,-99999.0,'11111222,11111222,99999999' 
TABS,ioos:station:wmo:42048:1,2011-02-01T18:00:00Z,27.9396,-96.8429,2.0,202.9055056,27.74803777,-99999.0,'11111222,11111222,99999999' 
TABS,ioos:station:wmo:42048:1,2011-02-01T18:30:00Z,27.9396,-96.8429,2.0,202.4914236,26.82006711,-99999.0,'11111222,11111222,99999999' 
TABS,ioos:station:wmo:42048:1,2011-02-01T19:00:00Z,27.9396,-96.8429,2.0,206.2908261,26.18912752,-99999.0,'11111222,11111222,99999999' 
TABS,ioos:station:wmo:42048:1,2011-02-01T19:30:00Z,27.9396,-96.8429,2.0,205.6777876,23.97799408,-99999.0,'11111222,11111222,99999999' 
TABS,ioos:station:wmo:42048:1,2011-02-01T20:00:00Z,27.9396,-96.8429,2.0,212.9561316,21.01099236,-99999.0,'11111222,11111222,99999999' 
TABS,ioos:station:wmo:42048:1,2011-02-01T20:30:00Z,27.9396,-96.8429,2.0,203.7869698,23.90034519,-99999.0,'11111222,11111222,99999999' 
TABS,ioos:station:wmo:42048:1,2011-02-01T21:00:00Z,27.9396,-96.8429,2.0,213.5068954,26.93637875,-99999.0,'11111222,11111222,99999999' 
TABS,ioos:station:wmo:42048:1,2011-02-01T21:30:00Z,27.9396,-96.8429,2.0,205.6646228,22.48867493,-99999.0,'11111222,11111222,99999999' 
TABS,ioos:station:wmo:42048:1,2011-02-01T22:00:00Z,27.9396,-96.8429,2.0,210.5081952,25.03615386,-99999.0,'11111222,11111222,99999999' 
TABS,ioos:station:wmo:42048:1,2011-02-01T22:30:00Z,27.9396,-96.8429,2.0,218.4661895,26.84642248,-99999.0,'11111222,11111222,99999999' 
TABS,ioos:station:wmo:42048:1,2011-02-01T23:00:00Z,27.9396,-96.8429,2.0,214.8322427,27.95967453,-99999.0,'11111222,11111222,99999999' 
TABS,ioos:station:wmo:42048:1,2011-02-01T23:30:00Z,27.9396,-96.8429,2.0,220.1757933,27.91646468,-99999.0,'11111222,11111222,99999999' 
TABS,ioos:station:wmo:42048:1,2011-02-02T00:00:00Z,27.9396,-96.8429,2.0,214.8776587,27.15841122,-99999.0,'11111222,11111222,99999999' 
TABS,ioos:station:wmo:42048:1,2011-02-02T00:30:00Z,27.9396,-96.8429,2.0,226.1010896,26.11827904,-99999.0,'11111222,11111222,99999999' 
TABS,ioos:station:wmo:42048:1,2011-02-02T01:00:00Z,27.9396,-96.8429,2.0,224.038756,29.93604015,-99999.0,'11111222,11111222,99999999' 
TABS,ioos:station:wmo:42048:1,2011-02-02T01:30:00Z,27.9396,-96.8429,2.0,222.1161185,28.6741312,-99999.0,'11111222,11111222,99999999' 
TABS,ioos:station:wmo:42048:1,2011-02-02T02:00:00Z,27.9396,-96.8429,2.0,222.1889082,30.56964835,-99999.0,'11111222,11111222,99999999' 
TABS,ioos:station:wmo:42048:1,2011-02-02T02:30:00Z,27.9396,-96.8429,2.0,218.9531594,27.11992994,-99999.0,'11111222,11111222,99999999' 
TABS,ioos:station:wmo:42048:1,2011-02-02T03:00:00Z,27.9396,-96.8429,2.0,224.2489244,34.53806017,-99999.0,'11111222,11111222,99999999' 
TABS,ioos:station:wmo:42048:1,2011-02-02T03:30:00Z,27.9396,-96.8429,2.0,227.3972479,34.82013498,-99999.0,'11111222,11111222,99999999' 
TABS,ioos:station:wmo:42048:1,2011-02-02T04:00:00Z,27.9396,-96.8429,2.0,215.6029341,39.62768351,-99999.0,'11111222,11111222,99999999' 
TABS,ioos:station:wmo:42048:1,2011-02-02T04:30:00Z,27.9396,-96.8429,2.0,211.1873631,33.79405421,-99999.0,'11111222,11111222,99999999' 
TABS,ioos:station:wmo:42048:1,2011-02-02T05:00:00Z,27.9396,-96.8429,2.0,223.7558247,35.17978112,-99999.0,'11111222,11111222,99999999' 
TABS,ioos:station:wmo:42048:1,2011-02-02T05:30:00Z,27.9396,-96.8429,2.0,221.555767,33.78293208,-99999.0,'11111222,11111222,99999999' 
TABS,ioos:station:wmo:42048:1,2011-02-02T06:00:00Z,27.9396,-96.8429,2.0,223.7564014,33.89253605,-99999.0,'11111222,11111222,99999999' 
TABS,ioos:station:wmo:42048:1,2011-02-02T06:30:00Z,27.9396,-96.8429,2.0,226.3181395,30.11658015,-99999.0,'11111222,11111222,99999999' 
TABS,ioos:station:wmo:42048:1,2011-02-02T07:00:00Z,27.9396,-96.8429,2.0,219.7638936,30.14245013,-99999.0,'11111222,11111222,99999999' 
TABS,ioos:station:wmo:42048:1,2011-02-02T07:30:00Z,27.9396,-96.8429,2.0,223.6987091,28.34107443,-99999.0,'11111222,11111222,99999999' 
TABS,ioos:station:wmo:42048:1,2011-02-02T08:00:00Z,27.9396,-96.8429,2.0,224.1170291,29.83637545,-99999.0,'11111222,11111222,99999999' 
TABS,ioos:station:wmo:42048:1,2011-02-02T08:30:00Z,27.9396,-96.8429,2.0,219.0209223,29.46276633,-99999.0,'11111222,11111222,99999999' 
TABS,ioos:station:wmo:42048:1,2011-02-02T09:00:00Z,27.9396,-96.8429,2.0,221.8535983,31.30837747,-99999.0,'11111222,11111222,99999999' 
TABS,ioos:station:wmo:42048:1,2011-02-02T09:30:00Z,27.9396,-96.8429,2.0,229.4266456,26.38308549,-99999.0,'11111222,11111222,99999999' 
TABS,ioos:station:wmo:42048:1,2011-02-02T10:00:00Z,27.9396,-96.8429,2.0,217.964459,25.74870094,-99999.0,'11111222,11111222,99999999' 
TABS,ioos:station:wmo:42048:1,2011-02-02T10:30:00Z,27.9396,-96.8429,2.0,231.1467271,28.72520322,-99999.0,'11111222,11111222,99999999' 
TABS,ioos:station:wmo:42048:1,2011-02-02T11:00:00Z,27.9396,-96.8429,2.0,233.3595257,25.43620451,-99999.0,'11111222,11111222,99999999' 
TABS,ioos:station:wmo:42048:1,2011-02-02T11:30:00Z,27.9396,-96.8429,2.0,215.6116383,23.32162087,-99999.0,'11111222,11111222,99999999' 
TABS,ioos:station:wmo:42048:1,2011-02-02T12:00:00Z,27.9396,-96.8429,2.0,222.813153,25.20549543,-99999.0,'11111222,11111222,99999999' 
TABS,ioos:station:wmo:42048:1,2011-02-02T12:30:00Z,27.9396,-96.8429,2.0,223.758502,23.17732728,-99999.0,'11111222,11111222,99999999' 
TABS,ioos:station:wmo:42048:1,2011-02-02T13:00:00Z,27.9396,-96.8429,2.0,224.4780997,20.1958065,-99999.0,'11111222,11111222,99999999' 
TABS,ioos:station:wmo:42048:1,2011-02-02T13:30:00Z,27.9396,-96.8429,2.0,231.8262008,25.7586665,-99999.0,'11111222,11111222,99999999' 
TABS,ioos:station:wmo:42048:1,2011-02-02T14:00:00Z,27.9396,-96.8429,2.0,231.4209648,22.06581292,-99999.0,'11111222,11111222,99999999' 
TABS,ioos:station:wmo:42048:1,2011-02-02T14:30:00Z,27.9396,-96.8429,2.0,229.5333218,24.86897666,-99999.0,'11111222,11111222,99999999' 
TABS,ioos:station:wmo:42048:1,2011-02-02T15:00:00Z,27.9396,-96.8429,2.0,228.8686389,26.51328912,-99999.0,'11111222,11111222,99999999' 
TABS,ioos:station:wmo:42048:1,2011-02-02T15:30:00Z,27.9396,-96.8429,2.0,234.4949181,22.2463143,-99999.0,'11111222,11111222,99999999' 
TABS,ioos:station:wmo:42048:1,2011-02-02T16:00:00Z,27.9396,-96.8429,2.0,236.507502,20.87626643,-99999.0,'11111222,11111222,99999999' 
TABS,ioos:station:wmo:42048:1,2011-02-02T16:30:00Z,27.9396,-96.8429,2.0,233.4099968,19.62823477,-99999.0,'11111222,11111222,99999999' 
TABS,ioos:station:wmo:42048:1,2011-02-02T17:00:00Z,27.9396,-96.8429,2.0,246.7470413,19.5042662,-99999.0,'11111222,11111222,99999999' 
TABS,ioos:station:wmo:42048:1,2011-02-02T17:30:00Z,27.9396,-96.8429,2.0,234.1518562,15.24842615,-99999.0,'11111222,11111222,99999999' 
TABS,ioos:station:wmo:42048:1,2011-02-02T18:00:00Z,27.9396,-96.8429,2.0,222.4384652,14.24121484,-99999.0,'11111222,11111222,99999999' 
TABS,ioos:station:wmo:42048:1,2011-02-02T18:30:00Z,27.9396,-96.8429,2.0,214.4704171,14.04631268,-99999.0,'11111222,11111222,99999999' 
TABS,ioos:station:wmo:42048:1,2011-02-02T19:00:00Z,27.9396,-96.8429,2.0,213.6421906,16.69648167,-99999.0,'11111222,11111222,99999999' 
TABS,ioos:station:wmo:42048:1,2011-02-02T19:30:00Z,27.9396,-96.8429,2.0,220.1858912,16.76807979,-99999.0,'11111222,11111222,99999999' 
TABS,ioos:station:wmo:42048:1,2011-02-02T20:00:00Z,27.9396,-96.8429,2.0,214.9861384,16.79507368,-99999.0,'11111222,11111222,99999999' 
TABS,ioos:station:wmo:42048:1,2011-02-02T20:30:00Z,27.9396,-96.8429,2.0,200.2811048,19.53088068,-99999.0,'11111222,11111222,99999999' 
TABS,ioos:station:wmo:42048:1,2011-02-02T21:00:00Z,27.9396,-96.8429,2.0,229.3810525,14.34669648,-99999.0,'11111222,11111222,99999999' 
TABS,ioos:station:wmo:42048:1,2011-02-02T21:30:00Z,27.9396,-96.8429,2.0,218.9841447,12.9548215,-99999.0,'11111222,11111222,99999999' 
TABS,ioos:station:wmo:42048:1,2011-02-02T22:00:00Z,27.9396,-96.8429,2.0,220.511278,12.469178,-99999.0,'11111222,11111222,99999999' 
TABS,ioos:station:wmo:42048:1,2011-02-02T22:30:00Z,27.9396,-96.8429,2.0,212.0557273,14.39477683,-99999.0,'11111222,11111222,99999999' 
TABS,ioos:station:wmo:42048:1,2011-02-02T23:00:00Z,27.9396,-96.8429,2.0,201.9568808,15.03023619,-99999.0,'11111222,11111222,99999999' 
TABS,ioos:station:wmo:42048:1,2011-02-02T23:30:00Z,27.9396,-96.8429,2.0,204.4978874,15.74769189,-99999.0,'11111222,11111222,99999999' 
TABS,ioos:station:wmo:42048:1,2011-02-03T00:00:00Z,27.9396,-96.8429,2.0,201.3940328,11.76038265,-99999.0,'11111222,11111222,99999999' 
TABS,ioos:station:wmo:42048:1,2011-02-03T00:30:00Z,27.9396,-96.8429,2.0,200.0972456,11.55350163,-99999.0,'11111222,11111222,99999999' 
TABS,ioos:station:wmo:42048:1,2011-02-03T01:00:00Z,27.9396,-96.8429,2.0,199.8820467,16.02521139,-99999.0,'11111222,11111222,99999999' 
TABS,ioos:station:wmo:42048:1,2011-02-03T01:30:00Z,27.9396,-96.8429,2.0,200.898237,13.31600916,-99999.0,'11111222,11111222,99999999' 
TABS,ioos:station:wmo:42048:1,2011-02-03T02:00:00Z,27.9396,-96.8429,2.0,207.5872079,15.28819479,-99999.0,'11111222,11111222,99999999' 
TABS,ioos:station:wmo:42048:1,2011-02-03T02:30:00Z,27.9396,-96.8429,2.0,195.3787657,15.00737485,-99999.0,'11111222,11111222,99999999' 
TABS,ioos:station:wmo:42048:1,2011-02-03T03:00:00Z,27.9396,-96.8429,2.0,223.1484617,14.44666051,-99999.0,'11111222,11111222,99999999' 
TABS,ioos:station:wmo:42048:1,2011-02-03T03:30:00Z,27.9396,-96.8429,2.0,233.2020194,14.27401135,-99999.0,'11111222,11111222,99999999' 
TABS,ioos:station:wmo:42048:1,2011-02-03T04:00:00Z,27.9396,-96.8429,2.0,206.0643927,16.38653105,-99999.0,'11111222,11111222,99999999' 
TABS,ioos:station:wmo:42048:1,2011-02-03T04:30:00Z,27.9396,-96.8429,2.0,197.7100741,15.25288497,-99999.0,'11111222,11111222,99999999' 
TABS,ioos:station:wmo:42048:1,2011-02-03T05:00:00Z,27.9396,-96.8429,2.0,221.516862,15.94642593,-99999.0,'11111222,11111222,99999999' 
TABS,ioos:station:wmo:42048:1,2011-02-03T05:30:00Z,27.9396,-96.8429,2.0,196.9927169,14.19996127,-99999.0,'11111222,11111222,99999999' 
TABS,ioos:station:wmo:42048:1,2011-02-03T06:00:00Z,27.9396,-96.8429,2.0,209.3675113,18.65770886,-99999.0,'11111222,11111222,99999999' 
TABS,ioos:station:wmo:42048:1,2011-02-03T06:30:00Z,27.9396,-96.8429,2.0,210.873349,20.71533973,-99999.0,'11111222,11111222,99999999' 
TABS,ioos:station:wmo:42048:1,2011-02-03T07:00:00Z,27.9396,-96.8429,2.0,218.227675,18.64923859,-99999.0,'11111222,11111222,99999999' 
TABS,ioos:station:wmo:42048:1,2011-02-03T07:30:00Z,27.9396,-96.8429,2.0,217.2312766,16.79233456,-99999.0,'11111222,11111222,99999999' 
TABS,ioos:station:wmo:42048:1,2011-02-03T08:00:00Z,27.9396,-96.8429,2.0,217.096818,15.63412294,-99999.0,'11111222,11111222,99999999' 
TABS,ioos:station:wmo:42048:1,2011-02-03T08:30:00Z,27.9396,-96.8429,2.0,213.1919347,18.83278259,-99999.0,'11111222,11111222,99999999' 
TABS,ioos:station:wmo:42048:1,2011-02-03T09:00:00Z,27.9396,-96.8429,2.0,208.1378069,20.03824843,-99999.0,'11111222,11111222,99999999' 
TABS,ioos:station:wmo:42048:1,2011-02-03T09:30:00Z,27.9396,-96.8429,2.0,206.4507576,22.47252767,-99999.0,'11111222,11111222,99999999' 
TABS,ioos:station:wmo:42048:1,2011-02-03T10:00:00Z,27.9396,-96.8429,2.0,220.4304403,20.7700987,-99999.0,'11111222,11111222,99999999' 
TABS,ioos:station:wmo:42048:1,2011-02-03T10:30:00Z,27.9396,-96.8429,2.0,211.9878315,21.10455875,-99999.0,'11111222,11111222,99999999' 
TABS,ioos:station:wmo:42048:1,2011-02-03T11:00:00Z,27.9396,-96.8429,2.0,214.7490532,23.40402743,-99999.0,'11111222,11111222,99999999' 
TABS,ioos:station:wmo:42048:1,2011-02-03T11:30:00Z,27.9396,-96.8429,2.0,228.2077037,20.72241781,-99999.0,'11111222,11111222,99999999' 
TABS,ioos:station:wmo:42048:1,2011-02-03T12:00:00Z,27.9396,-96.8429,2.0,214.8848795,24.60075812,-99999.0,'11111222,11111222,99999999' 
TABS,ioos:station:wmo:42048:1,2011-02-03T12:30:00Z,27.9396,-96.8429,2.0,214.795447,27.74017484,-99999.0,'11111222,11111222,99999999' 
TABS,ioos:station:wmo:42048:1,2011-02-03T13:00:00Z,27.9396,-96.8429,2.0,216.1067274,25.38625022,-99999.0,'11111222,11111222,99999999' 
TABS,ioos:station:wmo:42048:1,2011-02-03T13:30:00Z,27.9396,-96.8429,2.0,215.2493229,27.51500136,-99999.0,'11111222,11111222,99999999' 
TABS,ioos:station:wmo:42048:1,2011-02-03T14:00:00Z,27.9396,-96.8429,2.0,220.6575719,27.45798609,-99999.0,'11111222,11111222,99999999' 
TABS,ioos:station:wmo:42048:1,2011-02-03T14:30:00Z,27.9396,-96.8429,2.0,215.8501591,30.23878635,-99999.0,'11111222,11111222,99999999' 
TABS,ioos:station:wmo:42048:1,2011-02-03T15:00:00Z,27.9396,-96.8429,2.0,228.217404,24.31330706,-99999.0,'11111222,11111222,99999999' 
TABS,ioos:station:wmo:42048:1,2011-02-03T15:30:00Z,27.9396,-96.8429,2.0,227.7005592,30.31198443,-99999.0,'11111222,11111222,99999999' 
TABS,ioos:station:wmo:42048:1,2011-02-03T16:00:00Z,27.9396,-96.8429,2.0,219.744824,30.34219669,-99999.0,'11111222,11111222,99999999' 
TABS,ioos:station:wmo:42048:1,2011-02-03T16:30:00Z,27.9396,-96.8429,2.0,222.3994425,31.79597459,-99999.0,'11111222,11111222,99999999' 
TABS,ioos:station:wmo:42048:1,2011-02-03T17:00:00Z,27.9396,-96.8429,2.0,221.7885346,29.41232565,-99999.0,'11111222,11111222,99999999' 
TABS,ioos:station:wmo:42048:1,2011-02-03T17:30:00Z,27.9396,-96.8429,2.0,216.9458814,25.53802263,-99999.0,'11111222,11111222,99999999' 
TABS,ioos:station:wmo:42048:1,2011-02-03T18:00:00Z,27.9396,-96.8429,2.0,221.8302796,32.35720167,-99999.0,'11111222,11111222,99999999' 
TABS,ioos:station:wmo:42048:1,2011-02-03T18:30:00Z,27.9396,-96.8429,2.0,227.0169206,27.72162333,-99999.0,'11111222,11111222,99999999' 
TABS,ioos:station:wmo:42048:1,2011-02-03T19:00:00Z,27.9396,-96.8429,2.0,220.2746266,27.03973558,-99999.0,'11111222,11111222,99999999' 
TABS,ioos:station:wmo:42048:1,2011-02-03T19:30:00Z,27.9396,-96.8429,2.0,222.5523224,21.69260934,-99999.0,'11111222,11111222,99999999' 
TABS,ioos:station:wmo:42048:1,2011-02-03T20:00:00Z,27.9396,-96.8429,2.0,220.5119212,30.00260322,-99999.0,'11111222,11111222,99999999' 
TABS,ioos:station:wmo:42048:1,2011-02-03T20:30:00Z,27.9396,-96.8429,2.0,211.250086,28.79840273,-99999.0,'11111222,11111222,99999999' 
TABS,ioos:station:wmo:42048:1,2011-02-03T21:00:00Z,27.9396,-96.8429,2.0,228.8620542,30.12753724,-99999.0,'11111222,11111222,99999999' 
TABS,ioos:station:wmo:42048:1,2011-02-03T21:30:00Z,27.9396,-96.8429,2.0,213.0920527,25.25687431,-99999.0,'11111222,11111222,99999999' 
TABS,ioos:station:wmo:42048:1,2011-02-03T22:00:00Z,27.9396,-96.8429,2.0,219.9494677,27.47167996,-99999.0,'11111222,11111222,99999999' 
TABS,ioos:station:wmo:42048:1,2011-02-03T22:30:00Z,27.9396,-96.8429,2.0,226.5250765,27.89110432,-99999.0,'11111222,11111222,99999999' 
TABS,ioos:station:wmo:42048:1,2011-02-03T23:00:00Z,27.9396,-96.8429,2.0,213.4630509,23.83010701,-99999.0,'11111222,11111222,99999999' 
TABS,ioos:station:wmo:42048:1,2011-02-03T23:30:00Z,27.9396,-96.8429,2.0,218.433401,27.70231759,-99999.0,'11111222,11111222,99999999' 
TABS,ioos:station:wmo:42048:1,2011-02-04T00:00:00Z,27.9396,-96.8429,2.0,216.8735101,29.31400007,-99999.0,'11111222,11111222,99999999' 
TABS,ioos:station:wmo:42048:1,2011-02-04T00:30:00Z,27.9396,-96.8429,2.0,215.6092012,27.82273171,-99999.0,'11111222,11111222,99999999' 
TABS,ioos:station:wmo:42048:1,2011-02-04T01:00:00Z,27.9396,-96.8429,2.0,212.6209537,28.9936769,-99999.0,'11111222,11111222,99999999' 
TABS,ioos:station:wmo:42048:1,2011-02-04T01:30:00Z,27.9396,-96.8429,2.0,212.7254438,29.00383423,-99999.0,'11111222,11111222,99999999' 
TABS,ioos:station:wmo:42048:1,2011-02-04T02:00:00Z,27.9396,-96.8429,2.0,222.4558537,27.88041069,-99999.0,'11111222,11111222,99999999' 
TABS,ioos:station:wmo:42048:1,2011-02-04T02:30:00Z,27.9396,-96.8429,2.0,220.4885117,26.52088422,-99999.0,'11111222,11111222,99999999' 
TABS,ioos:station:wmo:42048:1,2011-02-04T03:00:00Z,27.9396,-96.8429,2.0,212.576706,27.41290937,-99999.0,'11111222,11111222,99999999' 
TABS,ioos:station:wmo:42048:1,2011-02-04T03:30:00Z,27.9396,-96.8429,2.0,221.4490953,24.54837062,-99999.0,'11111222,11111222,99999999' 
TABS,ioos:station:wmo:42048:1,2011-02-04T04:00:00Z,27.9396,-96.8429,2.0,223.9304398,28.79840273,-99999.0,'11111222,11111222,99999999' 
TABS,ioos:station:wmo:42048:1,2011-02-04T04:30:00Z,27.9396,-96.8429,2.0,210.4092659,28.01388941,-99999.0,'11111222,11111222,99999999' 
TABS,ioos:station:wmo:42048:1,2011-02-04T05:00:00Z,27.9396,-96.8429,2.0,216.6437747,28.41622072,-99999.0,'11111222,11111222,99999999' 
TABS,ioos:station:wmo:42048:1,2011-02-04T05:30:00Z,27.9396,-96.8429,2.0,225.9996838,27.95618894,-99999.0,'11111222,11111222,99999999' 
TABS,ioos:station:wmo:42048:1,2011-02-04T06:00:00Z,27.9396,-96.8429,2.0,221.0293963,25.53125927,-99999.0,'11111222,11111222,99999999' 
TABS,ioos:station:wmo:42048:1,2011-02-04T06:30:00Z,27.9396,-96.8429,2.0,229.0801954,22.65656638,-99999.0,'11111222,11111222,99999999' 
TABS,ioos:station:wmo:42048:1,2011-02-04T07:00:00Z,27.9396,-96.8429,2.0,221.9782301,24.54951934,-99999.0,'11111222,11111222,99999999' 
TABS,ioos:station:wmo:42048:1,2011-02-04T07:30:00Z,27.9396,-96.8429,2.0,216.2078733,25.62970932,-99999.0,'11111222,11111222,99999999' 
TABS,ioos:station:wmo:42048:1,2011-02-04T08:00:00Z,27.9396,-96.8429,2.0,225.3120535,24.64303756,-99999.0,'11111222,11111222,99999999' 
TABS,ioos:station:wmo:42048:1,2011-02-04T08:30:00Z,27.9396,-96.8429,2.0,217.9466527,22.34394773,-99999.0,'11111222,11111222,99999999' 
TABS,ioos:station:wmo:42048:1,2011-02-04T09:00:00Z,27.9396,-96.8429,2.0,218.878031,23.34033847,-99999.0,'11111222,11111222,99999999' 
TABS,ioos:station:wmo:42048:1,2011-02-04T09:30:00Z,27.9396,-96.8429,2.0,233.7095814,25.49530545,-99999.0,'11111222,11111222,99999999' 
TABS,ioos:station:wmo:42048:1,2011-02-04T10:00:00Z,27.9396,-96.8429,2.0,222.5902435,21.529222,-99999.0,'11111222,11111222,99999999' 
TABS,ioos:station:wmo:42048:1,2011-02-04T10:30:00Z,27.9396,-96.8429,2.0,218.4480103,22.00034772,-99999.0,'11111222,11111222,99999999' 
TABS,ioos:station:wmo:42048:1,2011-02-04T11:00:00Z,27.9396,-96.8429,2.0,227.2254393,17.47872421,-99999.0,'11111222,11111222,99999999' 
TABS,ioos:station:wmo:42048:1,2011-02-04T11:30:00Z,27.9396,-96.8429,2.0,230.690312,18.18447965,-99999.0,'11111222,11111222,99999999' 
TABS,ioos:station:wmo:42048:1,2011-02-04T12:00:00Z,27.9396,-96.8429,2.0,218.19913,19.82533732,-99999.0,'11111222,11111222,99999999' 
TABS,ioos:station:wmo:42048:1,2011-02-04T12:30:00Z,27.9396,-96.8429,2.0,235.6737709,15.99576506,-99999.0,'11111222,11111222,99999999' 
TABS,ioos:station:wmo:42048:1,2011-02-04T13:00:00Z,27.9396,-96.8429,2.0,217.6780406,18.14380611,-99999.0,'11111222,11111222,99999999' 
TABS,ioos:station:wmo:42048:1,2011-02-04T13:30:00Z,27.9396,-96.8429,2.0,230.7881944,19.13998171,-99999.0,'11111222,11111222,99999999' 
TABS,ioos:station:wmo:42048:1,2011-02-04T14:00:00Z,27.9396,-96.8429,2.0,242.8742593,18.29191078,-99999.0,'11111222,11111222,99999999' 
TABS,ioos:station:wmo:42048:1,2011-02-04T14:30:00Z,27.9396,-96.8429,2.0,221.6423256,15.69642634,-99999.0,'11111222,11111222,99999999' 
TABS,ioos:station:wmo:42048:1,2011-02-04T15:00:00Z,27.9396,-96.8429,2.0,226.4740799,14.84001348,-99999.0,'11111222,11111222,99999999' 
TABS,ioos:station:wmo:42048:1,2011-02-04T15:30:00Z,27.9396,-96.8429,2.0,229.0308038,15.89265239,-99999.0,'11111222,11111222,99999999' 
TABS,ioos:station:wmo:42048:1,2011-02-04T16:00:00Z,27.9396,-96.8429,2.0,246.7479126,14.16009181,-99999.0,'11111222,11111222,99999999' 